Regional Weather Roundup
Issued by NWS

Home | Current Version | Previous Version | Text Only | Print | Product List | Glossary On
Versions: 1 2 3 4 5 6 7 8 9 10 11 12 13 14 15 16 17 18 19 20 21 22 23 24 25 26 27 28 29 30 31 32 33 34 35 36 37 38 39 40 41 42 43 44 45 46 47 48 49 50
000
ASUS46 KPQR 030310
RWROR

OREGON REGIONAL WEATHER ROUNDUP
NATIONAL WEATHER SERVICE PORTLAND OR
700 PM PST MON MAR 02 2015

NOTE: "FAIR" INDICATES FEW OR NO CLOUDS BELOW 12,000 FEET WITH
NO SIGNIFICANT WEATHER AND/OR OBSTRUCTIONS TO VISIBILITY.

ORZ001>013-030400-
NORTHWEST OREGON


CITY           SKY/WX    TMP DP  RH WIND       PRES   REMARKS
ASTORIA        CLOUDY    47  40  76 NW10      30.07R
NEWPORT        CLEAR     45  41  87 N5        30.08R
PORTLAND       PTCLDY    49  31  49 NW9       30.03R
VANCOUVER WA   CLEAR     50  28  42 VRB7      30.02R
SCAPPOOSE      CLEAR     49  30  48 N6        30.03R
HILLSBORO      CLEAR     48  30  49 NW6       30.03R
AURORA         CLEAR     48  32  53 N7        30.03R
MCMINNVILLE    CLEAR     49  34  56 N8        30.04R
SALEM          CLEAR     49  35  58 NW7       30.02R
CORVALLIS      CLEAR     43  37  81 NW8       30.04R
EUGENE         MOCLDY    48  38  68 NW7       30.02R
$$

ORZ021-028-030400-
SOUTHWEST OREGON


CITY           SKY/WX    TMP DP  RH WIND       PRES   REMARKS
NORTH BEND     MOCLDY    48  45  87 N9        30.05R
BROOKINGS      CLEAR     49  38  65 CALM      29.95R
ROSEBURG       CLOUDY    49  37  63 N8        30.01R
SEXTON SUMMIT  FOG       32  31  96 VRB5      29.91R VSB 1/2 WCI  27
MEDFORD        MOCLDY    48  33  56 NW6       29.96R
$$

ORZ014>016-041-030400-
COLUMBIA GORGE


CITY           SKY/WX    TMP DP  RH WIND       PRES   REMARKS
TROUTDALE      CLEAR     51  30  44 W6        30.01R
THE DALLES     CLOUDY    47  30  51 CALM      30.00R
$$

ORZ029>031-041-044-049-050-061>064-502-503-505>511-030400-
EASTERN OREGON


CITY           SKY/WX    TMP DP  RH WIND       PRES   REMARKS
REDMOND        CLOUDY    39  21  48 N3        29.93R
BEND           MOCLDY    37  19  48 N7        29.93R WCI  32
PRINEVILLE     CLOUDY    37  21  52 N8        29.92R WCI  31
KLAMATH FALLS  CLEAR     37  25  61 W6        29.85R WCI  32
LAKEVIEW       CLOUDY    37  21  52 N8        29.84R WCI  31
HERMISTON      MOCLDY    43  27  53 W6        29.99R
PENDLETON      CLOUDY    38  28  67 W7        29.96R WCI  33
JOHN DAY       CLOUDY    34  25  69 W5        29.89R WCI  30
MEACHAM        LGT SNOW  30  26  85 CALM      29.89R FOG
LA GRANDE      MOCLDY    36  18  48 NW13      29.90R WCI  27
BAKER CITY     MOCLDY    31  23  72 NW18      29.85R WCI  19
BURNS          CLOUDY    35  23  61 NW16      29.84R WCI  25
ROME             N/A     38  27  64 NW21      29.78R WCI  28
ONTARIO        CLOUDY    43  23  45 NW24G31   29.81R
$$



USA.gov is the U.S. government's official web portal to all federal, state and local government web resources and services.